• Join FlightAware (Why Join?)
  • Login
  • US Flag GB Flag 
16:37 EST


 

Airport Tracker/Info


-or-


 

Live Flight TrackerFlight Track Log ✈ N555LG ✈ 08-May-2013 ✈ KIXD - KICT

Flight Track Log - Related Links

Times and Time Zones

All times are in EDT time to prevent confusion due to time zone crossing. See the N555LG flight status page for this flight to view local times or setup timezone preferences in your user account.

Time Position Orientation Groundspeed Altitude Reporting Facility
EDT Latitude Longitude Course Direction KTS MPH feet Rate Location/Type
17:24 38.8167 -94.9000 151° Southeast 161 185 1,800  Level Kansas City TRACON
17:25 38.8042 -94.8911 151° Southeast 181 208 2,300 2,460 Climbing Kansas City Center
17:26 38.7422 -94.9067 191° South 204 235 5,300 2,400 Climbing Kansas City Center
17:27 38.7047 -94.9725 234° Southwest 239 275 7,300 2,460 Climbing Kansas City Center
17:28 38.6547 -95.0556 232° Southwest 260 299 10,400 2,760 Climbing Kansas City Center
17:29 38.6094 -95.1272 231° Southwest 269 310 13,100 1,740 Climbing Kansas City Center
17:30 38.5525 -95.2169 231° Southwest 298 343 14,000 420 Climbing Kansas City Center
17:31 38.5172 -95.3175 246° West 318 366 14,000  Level Kansas City Center
17:32 38.4883 -95.4383 253° West 318 366 14,000 -60 Level Kansas City Center
17:33 38.4583 -95.5389 249° West 318 366 13,900 -60 Descending Kansas City Center
17:34 38.4278 -95.6603 252° West 319 367 13,900  Level Kansas City Center
17:35 38.3972 -95.7608 249° West 318 366 13,900  Level Kansas City Center
17:36 38.3697 -95.8633 251° West 318 366 13,900  Level Kansas City Center
17:37 38.3350 -95.9847 250° West 325 374 13,900  Level Kansas City Center
17:38 38.3003 -96.0833 246° West 318 366 14,000  Climbing Kansas City Center
17:39 38.2453 -96.1908 237° Southwest 322 371 14,000  Level Kansas City Center
17:40 38.2033 -96.2856 241° Southwest 322 371 14,000 -720 Level Kansas City Center
17:41 38.1572 -96.3781 238° Southwest 317 365 12,600 -1,380 Descending Kansas City Center
17:42 38.1144 -96.4719 240° Southwest 308 354 11,200 -1,260 Descending Kansas City Center
17:43 38.0619 -96.5792 238° Southwest 298 343 10,000 -840 Descending Kansas City Center
17:44 38.0392 -96.6269 239° Southwest 296 341 10,000  Level Kansas City Center
17:44 38.0206 -96.6694 241° Southwest 297 342 10,000  Level Kansas City Center
17:45 38.0061 -96.6936 233° Southwest 296 341 10,000 -720 Level Kansas City Center
17:45 37.9772 -96.7578 240° Southwest 294 338 9,300 -1,260 Descending Kansas City Center
17:46 37.9392 -96.8375 239° Southwest 261 300 7,800 -1,620 Descending Kansas City Center
17:47 37.9250 -96.8661 238° Southwest 243 280 7,200 -1,500 Descending Kansas City Center
17:47 37.9111 -96.9142 250° West 252 290 6,300 -1,260 Descending Kansas City Center
17:48 37.8964 -96.9583 247° West 257 296 5,800 -1,020 Descending Kansas City Center
17:49 37.8817 -96.9975 245° Southwest 257 296 5,300 -840 Descending Kansas City Center
17:49 37.8644 -97.0378 242° Southwest 256 295 5,000 -900 Descending Kansas City Center
17:50 37.8461 -97.0964 248° West 257 296 4,400 -1,200 Descending Kansas City Center
17:51 37.8139 -97.1767 243° Southwest 256 295 3,000 -720 Descending Kansas City Center
17:52 37.7861 -97.2519 245° Southwest 249 287 3,000  Level Kansas City Center
17:53 37.7633 -97.3147 245° Southwest 221 254 3,000 -60 Level Kansas City Center
17:54 37.7414 -97.3761 246° West 202 232 2,900 -540 Descending Kansas City Center
17:55 37.6908 -97.4042 204° Southwest 134 154 1,900 -720 Descending Kansas City Center
17:56 37.6678 -97.4131 197° South 143 165 1,500 -480 Descending Kansas City Center
17:58 37.6499 -97.4331 235° Southwest  Level Estimated
18:05 37.6499 -97.4331 235° Southwest  Level Estimated